Flag for Switzerland Weather past 2 weeks in Sion, Valais, Switzerland

Now
13 °F

Cold.


Feels Like: 13 °F
Forecast: 16 / 33 °F
Wind: No wind

Location: Sion

Current Time: Dec 29, 2014 at 8:35:39 AM

Latest Report: Dec 29, 2014 at 8:00 AM


Visibility: N/A

Pressure: 30.63 "Hg

Humidity: 98%

Dew point: 13 °F

Location of SionLocation

Historic Weather in Sion — Graph

°F

Sion temperature yesterday

Maximum temperature yesterday: 37 °F (at 1:00 PM)
Minimum temperature yesterday: 22 °F (at 11:00 PM)
Average temperature yesterday: 31 °F

Past Weeks' High & Low Weather Summary

 TemperatureHumidityPressure
High51 °F (Dec 20, 2:00 PM)100% (Dec 27, 10:00 AM)30.67 "Hg (Dec 27, 10:00 AM)
Low14 °F (Dec 29, 7:00 AM)41% (Dec 26, 2:00 PM)29.65 "Hg (Dec 28, 2:00 AM)
Average37 °F82%30.27 "Hg
* Reported Dec 14 7:00 AM — Dec 29 7:00 AM, Sion, Weather by CustomWeather, © 2014

Note: Actual official high and low records may vary slightly from our data, if they occured in-between our weather recording intervals... More about our weather records

Advertising

Sion weather history for previous 24 hours

 ConditionsComfort  
Time TempWeatherWind HumidityBarometerVisibility
7:00 AM
Dec 29
14 °FPassing clouds.No wind100%30.60 "Hg12 mi
6:00 AM16 °FCold.2 mph100%30.57 "HgN/A
5:00 AM16 °FCold.2 mph93%30.55 "HgN/A
4:00 AM17 °FPassing clouds.1 mph97%30.52 "Hg9 mi
3:00 AM19 °FCold.1 mph94%30.48 "HgN/A
2:00 AM16 °FCold.1 mph100%30.45 "HgN/A
1:00 AM20 °FPassing clouds.2 mph94%30.41 "Hg9 mi
12:00 AM20 °FCold.1 mph95%30.37 "HgN/A
11:00 PM
Dec 28
22 °FCold.1 mph92%30.32 "HgN/A
10:00 PM24 °FPassing clouds.1 mph86%30.26 "Hg9 mi
9:00 PM25 °FChilly.5 mph87%30.20 "HgN/A
8:00 PM27 °FChilly.2 mph78%30.14 "HgN/A
7:00 PM30 °FPassing clouds.5 mph76%30.08 "Hg9 mi
6:00 PM31 °FChilly.6 mph77%30.03 "HgN/A
5:00 PM32 °FChilly.7 mph78%29.99 "HgN/A
4:00 PM34 °FChilly.9 mph76%29.96 "HgN/A
3:00 PM35 °FChilly.8 mph75%29.90 "HgN/A
2:00 PM35 °FChilly.12 mph76%29.87 "HgN/A
1:00 PM37 °FChilly.9 mph73%29.84 "HgN/A
12:00 PM33 °FChilly.3 mph82%29.85 "HgN/A
11:00 AM32 °FChilly.2 mph89%29.83 "HgN/A
10:00 AM31 °FOvercast.1 mph93%29.80 "Hg9 mi
9:00 AM31 °FChilly.2 mph93%29.77 "HgN/A
8:00 AM29 °FChilly.1 mph97%29.74 "HgN/A
Weather by CustomWeather, © 2014

See weather overviewHow to use our weather pages